Wind_Speed
11 11 13 14 16 17 16 16 15 14 14 14 15 17 18 19 19 16 17 19 20 16 11 9 8 7 8 8 9 9 11 11 12 11 11 11 10 11 12 12 12 11 8
10 10 12 15 16 17 18 18 17 16 15 15 14 15 16 16 17 17 13 12 13 15 16 17 15 13 8 6 7 8 8 9 11 12 12 12 11 11 12 12 10 9 9
6 5 7 12 15 17 18 18 19 20 17 14 15 14 13 13 14 15 15 15 14 13 12 12 12 13 13 15 8 6 8 9 10 11 12 13 13 13 13 12 11 8 9
3 2 5 10 13 15 17 19 21 22 20 17 15 16 16 15 14 14 13 12 12 12 12 12 11 11 12 13 14 14 9 10 11 13 13 13 15 15 15 13 10 10 10
4 4 5 7 11 14 17 20 22 23 21 18 16 16 17 19 17 16 15 15 14 14 13 13 12 12 11 11 12 12 13 13 15 14 12 12 15 16 16 18 16 13 13
6 7 8 9 11 15 19 21 24 24 22 19 17 18 19 20 20 18 15 14 14 16 16 16 15 15 15 12 12 12 11 12 13 14 14 14 15 14 16 18 19 19 17
9 10 10 12 13 17 20 22 24 23 23 21 19 18 19 21 20 18 15 13 14 14 15 15 17 18 19 19 16 15 14 14 16 15 15 15 16 17 14 13 17 19 22
12 13 14 15 15 19 22 23 24 23 24 22 22 23 23 23 22 16 11 11 13 15 16 17 18 19 20 21 21 19 17 16 15 15 17 16 18 18 16 15 14 17 22
17 18 18 17 18 22 24 25 24 25 26 24 23 24 25 23 22 17 13 14 14 15 18 20 21 20 20 19 19 19 17 17 16 16 15 16 18 20 21 20 15 14 15
21 21 21 20 21 24 25 25 25 26 26 25 25 26 27 24 20 15 14 16 17 19 21 21 21 22 22 21 19 18 16 15 15 17 17 16 18 20 20 22 23 18 20
24 24 23 22 22 25 25 25 27 27 26 25 25 27 28 27 20 15 16 17 19 21 21 22 24 25 24 22 21 20 18 17 16 15 16 18 19 22 22 22 25 22 22
28 28 26 24 25 26 24 26 27 27 26 27 27 27 28 28 23 18 19 20 22 22 23 23 25 25 23 22 22 22 23 22 21 20 19 19 19 21 24 26 26 28 25
31 31 29 27 27 25 24 25 27 27 27 27 27 27 29 30 26 21 22 24 25 26 26 26 26 27 24 24 24 26 27 27 26 25 25 24 23 24 25 27 28 28 25
32 33 32 30 26 25 25 25 26 27 28 28 28 29 29 30 28 24 24 26 28 28 28 28 28 28 27 27 28 31 31 31 31 30 29 29 29 27 27 30 30 28 26
33 36 35 31 28 26 25 26 26 27 29 30 30 31 30 30 29 27 27 28 29 31 30 29 29 31 32 32 33 34 33 33 33 34 35 34 34 33 30 33 34 32 29
39 39 38 35 31 28 26 27 28 28 30 32 33 33 32 31 31 29 30 31 32 33 32 31 33 34 35 35 36 36 36 37 37 37 38 40 40 41 40 36 37 36 35
40 41 40 38 33 30 28 28 28 29 30 34 35 34 34 33 32 31 31 33 34 34 33 34 36 37 36 38 38 38 39 40 40 41 43 44 46 46 45 45 43 41 39
41 40 41 39 36 33 30 29 30 30 32 34 37 36 36 34 34 33 33 35 36 35 35 37 39 37 38 38 38 40 41 43 44 45 48 50 51 52 53 51 49 48 46
41 41 43 42 39 37 33 32 33 33 35 36 38 39 37 36 37 36 36 37 37 37 39 41 40 39 39 41 42 44 47 49 52 55 56 56 57 57 58 57 58 56 54
39 39 41 41 41 40 37 36 36 37 38 40 41 40 38 38 39 38 38 37 37 41 42 41 41 41 42 44 45 47 49 53 56 56 56 58 59 61 63 64 65 63 62
38 38 41 42 43 43 41 39 39 40 42 43 43 42 39 39 41 41 39 40 42 43 43 42 42 44 46 48 50 52 54 58 59 62 64 66 72 77 79 79 78 77 72
39 40 42 43 45 44 42 42 42 44 45 46 45 43 40 40 42 42 42 43 43 44 44 44 45 47 49 53 55 57 60 63 64 67 70 77 83 89 96 101 100 98 92
40 40 42 44 44 44 43 44 44 46 46 47 46 43 41 41 43 43 43 44 44 45 45 47 47 50 53 56 61 65 66 67 68 70 78 89 98 106 105 103 102 101 101
40 43 44 43 42 44 45 45 45 47 47 48 44 42 41 42 44 44 44 45 45 45 47 47 50 53 56 60 66 69 71 73 79 79 84 99 95 94 89 77 72 74 88
45 44 44 42 41 46 46 45 46 48 48 46 42 41 41 42 44 45 45 45 46 46 47 50 53 56 58 65 68 70 72 77 85 93 99 78 84 63 56 56 57 54 64
41 41 40 38 41 44 44 45 48 48 47 43 41 41 41 42 44 45 46 46 47 48 49 52 54 58 63 66 69 72 76 81 91 98 87 78 66 40 44 50 52 49 49
Wind_Direction
68 55 65 59 50 49 44 33 27 27 24 24 27 25 26 25 25 32 42 47 49 49 42 33 29 15 358 344 325 320 290 300 291 305 313 304 307 318 332 325 304 296 304
90 76 67 57 50 43 41 33 24 16 7 6 11 14 13 18 23 21 21 26 30 38 44 51 48 40 19 345 329 318 318 313 304 300 303 303 291 299 318 332 317 299 305
90 66 56 51 40 40 35 29 19 15 3 356 349 355 352 358 5 12 11 7 9 10 16 23 27 27 31 29 4 331 319 312 300 294 295 297 292 287 301 324 322 284 297
189 310 33 31 26 25 17 14 13 6 2 351 342 339 339 338 345 352 356 356 359 4 2 357 3 19 20 19 19 18 7 13 345 325 312 298 289 285 283 289 306 301 284
251 301 343 354 4 14 7 3 359 356 358 354 342 335 332 333 336 339 342 344 348 352 351 350 351 351 358 1 359 6 2 355 357 355 344 320 301 293 286 283 279 279 277
279 294 309 323 337 358 0 358 351 351 353 349 340 333 330 327 327 327 327 327 336 341 345 344 349 348 347 357 353 350 348 345 342 347 338 337 333 314 292 278 277 274 274
283 292 300 313 333 346 348 347 345 345 345 344 340 331 325 321 320 318 314 321 334 337 341 346 349 348 343 337 340 341 343 345 347 345 339 328 329 332 313 289 275 274 271
275 285 299 308 323 335 334 339 338 338 337 335 331 328 324 324 324 316 310 324 330 334 336 339 339 337 334 333 334 335 336 337 340 341 338 336 327 322 322 315 295 299 272
276 283 295 304 315 325 330 332 333 334 332 329 324 321 321 321 320 312 314 318 320 325 326 326 326 323 324 321 323 324 329 330 331 331 331 329 325 323 327 321 313 332 325
274 283 291 300 309 319 323 324 328 329 327 325 321 319 318 318 314 303 306 305 306 314 318 319 319 319 318 317 315 315 316 317 319 323 327 327 322 318 318 319 315 316 326
270 278 285 291 302 313 316 322 324 324 322 321 319 318 321 322 315 291 295 298 300 308 315 319 322 320 314 309 309 308 305 305 306 307 311 315 317 316 314 314 317 316 317
266 272 278 285 296 306 311 318 320 321 320 320 318 318 321 323 320 294 287 293 297 303 308 314 317 315 308 306 307 305 303 300 298 298 296 299 304 306 307 307 309 314 318
265 271 276 282 294 299 305 313 316 317 317 317 315 316 318 322 318 301 288 290 295 301 304 310 313 314 306 300 302 302 299 297 294 290 290 290 290 293 296 299 303 304 312
265 270 274 283 291 293 300 306 310 311 314 315 313 312 312 317 313 300 287 288 295 299 300 307 307 309 306 302 302 302 301 295 293 290 288 287 287 285 288 288 289 294 297
262 266 274 281 287 287 294 300 304 306 309 310 309 308 307 309 308 300 292 289 292 294 295 301 304 304 302 297 298 299 296 295 292 288 287 284 285 282 280 287 284 284 286
264 268 273 280 281 281 287 293 299 303 306 306 306 305 304 304 306 299 293 290 290 290 291 295 300 303 302 298 297 296 296 295 292 288 284 285 285 282 279 279 279 278 280
267 269 273 275 277 277 282 287 294 302 307 305 304 304 301 300 303 299 292 289 290 290 290 295 299 300 298 297 296 295 296 294 292 290 289 287 286 283 278 275 274 272 273
266 267 269 274 273 273 277 282 289 299 306 306 305 305 301 298 300 296 292 290 291 289 289 292 295 297 296 294 295 297 295 292 288 287 287 285 284 281 277 274 270 268 266
262 266 270 270 271 270 271 277 285 295 302 306 305 304 302 297 297 293 292 291 290 289 289 291 295 296 295 295 297 297 297 294 293 292 290 287 283 280 277 274 270 265 261
264 266 268 268 267 266 268 274 282 291 297 304 305 303 300 295 295 292 291 290 290 291 290 292 296 296 296 296 295 293 292 291 292 290 289 285 280 278 275 271 268 263 259
267 265 265 263 263 265 266 271 279 288 294 300 303 301 298 295 294 293 291 291 293 292 294 295 297 298 296 294 293 292 291 290 290 288 286 283 284 282 277 272 267 262 256
264 262 263 262 263 264 267 270 277 285 291 298 300 298 295 295 293 292 294 295 294 296 297 298 299 297 294 294 294 294 292 292 292 292 290 287 285 284 281 274 269 262 255
267 262 260 261 263 266 268 270 275 281 288 295 296 295 294 294 293 294 297 297 297 299 299 299 297 296 295 296 296 297 296 295 297 296 293 295 294 291 289 282 272 261 251
265 259 260 262 264 265 268 271 274 280 288 292 292 291 293 293 293 297 298 298 300 299 299 298 296 296 297 298 299 302 303 302 302 299 302 302 301 299 294 284 274 260 244
262 261 261 262 262 263 266 270 275 281 287 288 289 289 291 292 296 297 299 300 299 299 298 297 297 298 298 301 303 304 306 306 308 308 308 306 309 302 290 293 287 272 247
263 261 260 258 257 262 266 270 275 282 283 285 285 288 290 294 296 298 300 299 298 298 299 299 300 300 302 306 306 307 309 310 312 314 310 313 313 291 297 303 298 285 252
Height
5915 5914 5912 5913 5912 5911 5911 5910 5909 5908 5906 5905 5904 5903 5901 5899 5898 5896 5894 5892 5891 5888 5887 5886 5885 5885 5884 5883 5883 5883 5883 5883 5884 5884 5884 5884 5884 5884 5884 5884 5884 5884 5884
5917 5916 5914 5913 5913 5912 5911 5911 5910 5909 5907 5906 5905 5903 5902 5900 5898 5897 5896 5894 5892 5891 5889 5888 5887 5885 5884 5884 5883 5882 5882 5882 5882 5882 5882 5882 5883 5883 5883 5883 5882 5884 5883
5918 5917 5915 5914 5914 5913 5912 5912 5911 5910 5908 5906 5905 5903 5902 5901 5899 5898 5896 5895 5893 5891 5890 5889 5888 5886 5885 5884 5882 5882 5881 5881 5880 5880 5880 5880 5881 5881 5882 5882 5882 5881 5881
5918 5917 5916 5915 5914 5913 5913 5912 5911 5910 5909 5907 5905 5903 5902 5900 5899 5898 5896 5895 5893 5892 5890 5889 5888 5886 5885 5884 5883 5882 5881 5880 5879 5879 5879 5879 5878 5879 5879 5879 5880 5880 5880
5918 5917 5916 5915 5914 5913 5913 5911 5910 5909 5908 5907 5905 5903 5901 5899 5898 5897 5896 5895 5893 5891 5890 5888 5886 5885 5885 5884 5883 5882 5881 5881 5879 5878 5877 5877 5876 5876 5876 5877 5877 5877 5877
5917 5917 5916 5915 5914 5913 5912 5910 5910 5908 5907 5905 5904 5902 5900 5898 5897 5895 5894 5893 5892 5891 5889 5887 5886 5884 5883 5882 5882 5881 5880 5879 5878 5877 5877 5876 5874 5873 5872 5873 5874 5875 5875
5917 5916 5915 5914 5913 5912 5911 5910 5908 5907 5905 5904 5902 5900 5899 5897 5895 5894 5892 5892 5890 5889 5888 5887 5885 5884 5882 5881 5880 5880 5879 5878 5877 5876 5875 5874 5872 5870 5869 5869 5869 5871 5872
5916 5915 5914 5913 5912 5911 5910 5909 5907 5905 5903 5902 5900 5898 5896 5894 5892 5891 5890 5890 5889 5888 5886 5885 5884 5882 5881 5879 5877 5876 5876 5875 5875 5874 5873 5872 5870 5868 5868 5867 5866 5866 5867
5915 5914 5912 5911 5910 5910 5908 5907 5905 5903 5901 5899 5898 5896 5894 5892 5890 5889 5888 5888 5887 5886 5884 5882 5881 5879 5878 5877 5875 5874 5873 5873 5872 5871 5871 5869 5869 5866 5865 5865 5864 5863 5863
5913 5911 5910 5910 5909 5908 5906 5905 5903 5901 5899 5897 5895 5893 5892 5890 5888 5887 5886 5885 5884 5883 5882 5880 5878 5876 5875 5873 5872 5870 5870 5869 5869 5869 5868 5867 5866 5864 5863 5862 5861 5860 5859
5910 5909 5908 5908 5907 5906 5904 5902 5900 5898 5896 5894 5893 5891 5889 5887 5886 5884 5883 5882 5881 5880 5878 5876 5875 5873 5871 5870 5869 5867 5866 5866 5865 5865 5864 5864 5863 5861 5859 5859 5858 5858 5857
5907 5906 5906 5905 5905 5903 5901 5899 5897 5895 5893 5891 5889 5887 5885 5883 5882 5881 5880 5878 5877 5876 5874 5873 5871 5869 5867 5866 5865 5864 5863 5862 5862 5861 5861 5860 5859 5858 5856 5854 5854 5853 5853
5904 5903 5903 5902 5902 5901 5899 5896 5894 5892 5890 5888 5885 5883 5881 5879 5878 5876 5875 5874 5873 5872 5870 5868 5867 5865 5863 5862 5861 5860 5859 5858 5857 5856 5856 5855 5855 5854 5852 5851 5850 5849 5850
5900 5899 5898 5898 5898 5897 5895 5893 5891 5889 5887 5884 5882 5879 5877 5875 5873 5872 5871 5870 5868 5867 5865 5863 5862 5860 5859 5857 5856 5854 5853 5852 5851 5850 5850 5850 5849 5849 5848 5847 5845 5845 5844
5897 5894 5893 5893 5892 5892 5891 5889 5887 5885 5883 5880 5878 5875 5873 5871 5869 5867 5865 5864 5863 5861 5860 5858 5856 5855 5853 5851 5850 5848 5846 5845 5844 5843 5842 5842 5842 5842 5842 5841 5840 5840 5839
5889 5889 5888 5888 5887 5887 5886 5884 5882 5880 5878 5875 5873 5870 5868 5866 5864 5862 5860 5858 5857 5856 5854 5852 5850 5848 5846 5844 5842 5840 5839 5837 5836 5835 5834 5833 5834 5834 5834 5835 5833 5833 5833
5883 5881 5881 5881 5881 5881 5880 5878 5876 5874 5872 5869 5866 5864 5862 5860 5858 5856 5854 5852 5850 5848 5847 5845 5843 5841 5839 5837 5835 5833 5831 5829 5828 5826 5826 5825 5824 5823 5823 5824 5826 5825 5826
5875 5875 5873 5874 5873 5873 5872 5871 5869 5868 5866 5863 5860 5858 5855 5853 5851 5848 5846 5845 5842 5841 5839 5837 5835 5833 5831 5829 5827 5825 5823 5821 5819 5818 5816 5814 5813 5812 5811 5812 5813 5814 5817
5868 5868 5866 5865 5865 5865 5865 5864 5862 5860 5858 5856 5853 5851 5848 5846 5843 5841 5839 5837 5835 5833 5831 5829 5826 5824 5822 5819 5818 5815 5812 5809 5807 5806 5804 5803 5801 5800 5799 5798 5799 5801 5803
5860 5859 5858 5857 5856 5856 5857 5856 5854 5853 5850 5848 5846 5843 5841 5838 5836 5833 5831 5829 5827 5825 5822 5819 5817 5814 5812 5810 5808 5806 5804 5800 5797 5792 5789 5786 5785 5784 5783 5784 5783 5784 5787
5851 5850 5849 5848 5847 5848 5848 5847 5846 5844 5842 5839 5837 5834 5832 5830 5828 5825 5822 5820 5818 5815 5812 5809 5806 5803 5799 5798 5796 5794 5791 5787 5785 5779 5776 5772 5765 5761 5760 5759 5762 5764 5767
5841 5840 5839 5839 5838 5838 5839 5838 5837 5835 5833 5831 5828 5825 5823 5821 5819 5816 5813 5810 5807 5803 5800 5797 5794 5791 5788 5784 5782 5779 5776 5773 5768 5762 5754 5745 5740 5735 5728 5723 5724 5727 5737
5831 5831 5829 5829 5829 5830 5829 5828 5827 5826 5824 5822 5819 5816 5814 5811 5809 5806 5803 5799 5796 5793 5789 5786 5782 5779 5776 5770 5765 5760 5756 5752 5748 5744 5731 5717 5705 5691 5679 5670 5666 5670 5685
5820 5818 5819 5820 5821 5820 5819 5818 5818 5816 5814 5812 5809 5806 5804 5802 5799 5796 5793 5789 5786 5782 5779 5775 5771 5766 5762 5756 5748 5741 5732 5724 5718 5720 5713 5685 5667 5652 5632 5617 5613 5616 5629
5806 5808 5808 5810 5811 5810 5809 5809 5808 5806 5804 5802 5799 5797 5795 5792 5789 5786 5783 5779 5775 5772 5768 5764 5758 5753 5747 5740 5732 5724 5714 5703 5689 5674 5672 5659 5640 5619 5604 5594 5589 5587 5590
5796 5797 5798 5800 5800 5800 5799 5798 5798 5796 5794 5792 5789 5787 5785 5783 5780 5776 5773 5769 5765 5761 5756 5751 5745 5739 5732 5724 5714 5705 5694 5682 5667 5648 5633 5625 5614 5609 5594 5584 5573 5569 5569